Regional Weather Roundup
Issued by NWS Raleigh/Durham, NC

Home | Current Version | Previous Version | Text Only | Print | Product List | Glossary On
Versions: 1 2 3 4 5 6 7 8 9 10 11 12 13 14 15 16 17 18 19 20 21 22 23 24 25 26 27 28 29 30 31 32 33 34 35 36 37 38 39 40 41 42 43 44 45 46 47 48 49 50
606
ASUS42 KRAH 281210
RWRRAH
NORTH CAROLINA WEATHER ROUNDUP
NATIONAL WEATHER SERVICE RALEIGH NC
700 AM EST TUE FEB 28 2017

NOTE: "FAIR" INDICATES FEW OR NO CLOUDS BELOW 12,000 FEET WITH NO
SIGNIFICANT WEATHER AND/OR OBSTRUCTIONS TO VISIBILITY.

NCZ001-053-055-056-065-067-281300-
WESTERN NORTH CAROLINA

CITY           SKY/WX    TMP DP  RH WIND       PRES   REMARKS
ASHEVILLE      CLEAR     37  32  82 CALM      30.30R
JEFFERSON      CLOUDY    35  30  80 CALM      30.29R
MORGANTON      PTCLDY    33  32  96 CALM      30.34F
HICKORY        CLEAR     42  33  70 CALM      30.29R
RUTHERFORDTON  PTCLDY    43  32  65 NW3       30.31S
MOUNT AIRY     PTCLDY    38  33  80 CALM      30.31R
BOONE          CLEAR     28  27  95 CALM      30.29F
$$

NCZ021-022-025-041-071-084-088-281300-
CENTRAL NORTH CAROLINA

CITY           SKY/WX    TMP DP  RH WIND       PRES   REMARKS
CHARLOTTE      PTCLDY    43  36  76 NW6       30.30R
GREENSBORO     PTCLDY    44  41  89 CALM      30.27F
WINSTON-SALEM  CLEAR     46  30  53 CALM      30.30R
RALEIGH-DURHAM PTCLDY    52  48  86 E3        30.28F
FORT BRAGG     CLOUDY    50  49  96 CALM      30.28S
FAYETTEVILLE     N/A    N/A N/A N/A MISG        N/A
BURLINGTON     CLEAR     43  39  86 CALM      30.28R
LAURINBURG     CLOUDY    56  51  84 CALM      30.29S
$$

NCZ011-015-027-028-043-044-047-080-103-281300-
NORTHEASTERN NORTH CAROLINA

CITY           SKY/WX    TMP DP  RH WIND       PRES   REMARKS
ROCKY MT-WILSO CLEAR     48  48 100 CALM      30.30S
GREENVILLE     CLEAR     48  48 100 CALM      30.30S
WASHINGTON     CLEAR     53  52  95 S5        30.30F
ELIZABETH CITY CLEAR     52  50  93 CALM      30.32S
MANTEO         PTCLDY    51  51 100 CALM      30.33R
CAPE HATTERAS  MOCLDY    60  55  83 SW3       30.32F HAZE
$$

NCZ078-087-090-091-093-098-101-281300-
SOUTHEASTERN NORTH CAROLINA

CITY           SKY/WX    TMP DP  RH WIND       PRES   REMARKS
LUMBERTON      PTCLDY    53  52  96 CALM      30.28S
GOLDSBORO      CLEAR     54  54 100 CALM      30.28S
KINSTON        CLEAR     54  52  94 S3        30.30
KENANSVILLE    MOCLDY    50  48  93 CALM      30.30S
NEW BERN       MOCLDY    53  53 100 S3        30.32S
CHERRY POINT   MOCLDY    66  55  67 VRB3      30.32S
BEAUFORT       PTCLDY    60  59  96 E5        30.31S
JACKSONVILLE   MOCLDY    57  57 100 NE3       30.30S
WILMINGTON     CLOUDY    57  57 100 CALM      30.29F
$$





USA.gov is the U.S. government's official web portal to all federal, state and local government web resources and services.